Tracking 22780 objects as of 11-Apr-2021
HD Live streaming from Space Station
objects crossing your sky now

USA 43

Track USA 43 now!
USA 43 is classified as:


NORAD ID: 20202
Int'l Code: 1989-069A
Perigee: 36,216.4 km
Apogee: 36,314.3 km
Inclination: 14.7 °
Period: 1,460.3 minutes
Semi major axis: 42636 km
RCS: Unknown
Launch date: September 4, 1989
Source: United States (US)
Launch site: AIR FORCE EASTERN TEST RANGE (AFETR)
aabbcc
Your satellite tracking list
Your tracking list is empty




NASA's NSSDC Master Catalog

Two Line Element Set (TLE):
1 20202U 89069A   21100.83588503 -.00000160  00000-0  00000-0 0  9990
2 20202  14.7144 350.5124 0011479 219.3609 303.6879  0.98612781  7130
Source of the keplerian elements: McCants